Home > Weather > Clarksville > Past weeks

Flag for U.S.A. Weather for the Past 2 Weeks in Clarksville, Tennessee, U.S.A.

Now
49 °F

Passing clouds.


Feels Like: 45 °F
Forecast: 28 / 44 °F
Wind: 9 mph from Southwest

Location: Outlaw Field

Current Time: Feb 7, 2016 at 9:15:54 PM

Latest Report: Feb 7, 2016 at 8:52 PM


Visibility: 10 mi

Pressure: 29.91 "Hg

Humidity: 41%

Dew point: 26 °F

Location of ClarksvilleLocation

Historic Weather in Clarksville — Graph

°F

Clarksville Temperature Yesterday

Maximum temperature yesterday: 53 °F (at 2:52 PM)
Minimum temperature yesterday: 26 °F (at 6:52 AM)
Average temperature yesterday: 39 °F

High & Low Weather Summary for the Past Weeks

 TemperatureHumidityPressure
High71 °F (Jan 31, 1:52 PM)97% (Feb 2, 4:52 AM)30.48 "Hg (Feb 2, 4:52 AM)
Low10 °F (Jan 24, 4:52 AM)27% (Feb 6, 1:52 PM)29.58 "Hg (Feb 2, 7:52 PM)
Average42 °F67%30.07 "Hg
* Reported Jan 23 7:52 PM — Feb 7 7:52 PM, Clarksville, Weather by CustomWeather, © 2016

Note: Actual official high and low records may vary slightly from our data, if they occured in-between our weather recording intervals... More about our weather records

Advertising

Clarksville Weather History for the Previous 24 Hours

 ConditionsComfort  
Time TempWeatherWind HumidityBarometerVisibility
7:52 PM
Sun, Feb 7
48 °FOvercast.6 mph39%29.92 "Hg10 mi
6:52 PM50 °FClear.7 mph36%29.94 "Hg10 mi
5:52 PM52 °FClear.8 mph32%29.95 "Hg10 mi
4:52 PM53 °FClear.8 mph30%29.95 "Hg10 mi
3:52 PM54 °FSunny.13 mph27%29.96 "Hg10 mi
2:52 PM54 °FSunny.12 mph27%29.98 "Hg10 mi
1:52 PM55 °FSunny.13 mph28%30.01 "Hg10 mi
12:52 PM54 °FSunny.14 mph27%30.05 "Hg10 mi
11:52 AM53 °FSunny.13 mph31%30.11 "Hg10 mi
10:52 AM50 °FSunny.13 mph36%30.14 "Hg10 mi
9:52 AM46 °FSunny.12 mph44%30.17 "Hg10 mi
8:52 AM39 °FSunny.6 mph67%30.18 "Hg10 mi
7:52 AM31 °FSunny.3 mph85%30.20 "Hg10 mi
6:52 AM24 °FIce fog.5 mph91%30.21 "Hg6 mi
5:52 AM27 °FSunny.No wind89%30.21 "Hg9 mi
4:52 AM27 °FClear.No wind92%30.21 "Hg9 mi
3:52 AM29 °FClear.No wind85%30.21 "Hg10 mi
2:52 AM28 °FClear.No wind85%30.22 "Hg10 mi
1:52 AM31 °FClear.No wind76%30.24 "Hg10 mi
12:52 AM31 °FClear.No wind79%30.25 "Hg10 mi
11:52 PM
Sat, Feb 6
29 °FClear.No wind82%30.27 "Hg10 mi
10:52 PM33 °FClear.No wind70%30.28 "Hg10 mi
9:52 PM35 °FClear.No wind67%30.29 "Hg10 mi
Weather by CustomWeather, © 2016

See weather overviewHow to use our weather pages